Notices

What's New in latest Release from April 7th, 2021:

- Updated Glossary, including Speed of Maximum Gust, and Total Hourly Precipitation

- Updated national and regional climate services offices contacts and prices information

- Addition of station inventory lists for 1981-2010, 1971-2000, and 1961-1990 Normals.

If you haven't already, please take our survey and provide feedback about our website: https://eccc.sondage-survey.ca/f/LanguageSelection.aspx?s=442ca660-fcf1-47c0-95a9-59707d6fd709

Hourly Data Report for January 01, 2017

TORONTO CITY
ONTARIO

43°40'00.000" N
79°24'00.000" W
112.50 m
6158355
71508
XTO

Download Data

Hourly Data (January 2017)
Hourly Data Report for January 1, 2017
TIME
LST
Temp Definition
°C
Dew Point Definition
°C
Rel Hum Definition
%
Precip. Amount Definition
mm

Wind Dir Definition
10's deg

Wind Spd Definition
km/h
Visibility Definition
km
Stn Press Definition
kPa
Hmdx Definition


Wind Chill Definition


Weather Definition


00:00 0.5 -4.3 70 0.0 LegendMM LegendMM   99.34     LegendNANA
01:00 0.8 -4.2 70 0.0 LegendMM LegendMM   99.52     LegendNANA
02:00 0.6 -4.9 67 0.0 LegendMM LegendMM   99.64     LegendNANA
03:00 1.0 -4.6 66 0.0 LegendMM LegendMM   99.82     LegendNANA
04:00 1.0 -4.6 66 0.0 LegendMM LegendMM   99.98     LegendNANA
05:00 1.1 -4.7 65 0.0 LegendMM LegendMM   100.06     LegendNANA
06:00 0.6 -4.8 67 0.0 LegendMM LegendMM   100.16     LegendNANA
07:00 0.1 -5.4 67 0.0 LegendMM LegendMM   100.29     LegendNANA
08:00 -0.3 -5.6 67 0.0 LegendMM LegendMM   100.44     LegendNANA
09:00 -0.3 -6.0 65 0.0 LegendMM LegendMM   100.56     LegendNANA
10:00 0.5 -6.1 61 0.0 LegendMM LegendMM   100.68     LegendNANA
11:00 1.7 -6.3 55 0.0 LegendMM LegendMM   100.78     LegendNANA
12:00 2.2 -5.6 56 0.0 LegendMM LegendMM   100.74     LegendNANA
13:00 2.7 -5.9 53 0.0 LegendMM LegendMM   100.73     LegendNANA
14:00 2.8 -5.8 53 0.0 LegendMM LegendMM   100.72     LegendNANA
15:00 2.6 -6.1 53 0.0 LegendMM LegendMM   100.78     LegendNANA
16:00 2.7 -6.4 51 0.0 LegendMM LegendMM   100.89     LegendNANA
17:00 2.3 -5.7 55 0.0 LegendMM LegendMM   100.96     LegendNANA
18:00 2.3 -5.4 57 0.0 LegendMM LegendMM   101.08     LegendNANA
19:00 1.7 -5.6 58 0.0 LegendMM LegendMM   101.10     LegendNANA
20:00 1.8 -3.0 71 0.0 LegendMM LegendMM   101.17     LegendNANA
21:00 0.9 -4.1 69 0.0 LegendMM LegendMM   101.23     LegendNANA
22:00 0.7 -3.8 72 0.0 LegendMM LegendMM   101.27     LegendNANA
23:00 0.9 -3.2 74 0.0 LegendMM LegendMM   101.27     LegendNANA

Notes on Data Quality.

Legend

  • E = Estimated
  • M = Missing
  • NA = Not Available*
  • [empty] = Indicates an unobserved value
Date modified: